GFSSE_925_thetae_132.txt.gz
Theta_e
351 348 344 341 337 334 334 334 332 331 330 328 329 332 331 328 327 332 336 337 337 337 336 328 333 324 327 331 332 330 331 331 328 328 328 335 339 341 340 332 334 338 340
347 348 344 341 337 335 334 335 332 331 330 328 331 331 327 326 331 333 335 335 335 337 335 325 326 324 330 333 334 336 339 342 344 341 333 328 334 335 329 327 329 332 332
346 347 345 342 340 336 334 335 334 332 331 329 332 329 327 326 330 333 334 334 338 337 329 324 324 324 330 333 333 334 336 338 341 346 347 336 331 329 327 326 327 330 333
345 346 346 344 343 341 335 336 336 332 332 330 331 330 329 332 332 332 333 336 337 336 326 325 324 325 328 331 334 337 339 341 341 342 345 347 338 332 334 332 336 335 329
345 345 345 345 344 344 339 336 337 333 333 332 331 332 334 336 334 336 339 338 332 328 326 326 326 327 330 333 338 338 338 338 338 341 342 346 340 333 335 334 332 330 329
344 344 343 343 343 343 343 337 338 334 333 333 332 332 333 336 340 341 340 331 325 320 324 327 328 328 329 333 338 336 336 336 337 340 342 343 341 338 333 331 331 329 329
345 344 343 342 342 342 344 339 339 337 333 334 334 332 332 334 339 341 337 328 325 321 324 329 328 330 333 337 337 335 334 335 336 338 342 343 343 341 335 333 331 331 330
345 345 345 343 341 342 344 341 340 340 333 335 335 334 333 334 336 337 334 329 327 321 324 329 330 329 330 332 334 334 333 332 334 333 336 344 345 340 335 335 334 333 332
347 346 345 343 342 343 344 342 342 341 334 335 336 336 335 334 335 335 332 329 328 324 324 326 330 330 329 328 328 327 326 326 327 328 328 336 342 339 336 334 334 335 335
347 346 345 344 345 345 344 343 344 343 337 335 337 337 336 335 334 334 330 329 329 326 323 324 326 328 328 328 327 327 325 325 323 322 323 329 332 338 336 333 330 332 335
350 345 343 345 348 347 345 345 345 344 340 337 339 340 337 335 333 333 329 328 329 327 324 322 322 324 324 325 324 324 324 323 325 326 323 329 330 331 336 332 327 326 330
350 348 345 346 348 346 347 347 346 345 342 340 340 341 338 334 331 332 330 328 329 329 327 324 322 321 320 319 319 318 320 328 329 330 327 327 327 328 336 331 326 327 326
348 345 347 346 344 345 349 350 347 346 344 343 342 340 336 333 332 332 331 329 330 334 334 329 324 322 321 322 323 324 330 335 334 334 333 333 332 330 333 327 327 327 326
347 346 342 341 341 344 344 343 344 343 342 341 340 338 335 332 331 332 331 335 340 340 339 336 327 324 330 336 332 333 333 335 336 335 333 334 333 332 329 330 332 331 329
345 345 345 341 340 343 341 340 341 340 339 336 335 333 330 330 331 339 341 341 341 341 341 340 332 331 334 338 338 336 338 340 342 344 341 341 343 339 338 338 337 337 338
341 345 345 344 342 341 342 337 335 333 330 329 328 328 329 327 332 339 343 344 341 340 340 342 341 338 339 340 341 341 344 346 347 346 346 346 344 345 345 345 343 343 343
342 343 345 346 343 343 343 342 335 332 330 329 327 329 329 330 331 339 342 345 341 343 349 346 344 343 346 347 346 346 346 345 345 345 340 344 345 344 345 345 345 344 344
342 344 341 344 345 348 347 345 342 336 338 337 338 337 337 337 335 337 341 348 344 347 349 349 348 347 346 342 343 347 348 345 346 345 340 340 340 342 344 344 344 342 342
343 342 340 346 347 349 352 352 346 343 343 345 344 345 346 347 345 336 342 352 352 352 351 348 347 345 336 335 342 346 343 342 343 341 337 335 335 336 332 333 342 342 340
344 341 340 336 345 347 349 350 352 352 346 346 346 346 347 346 348 345 348 351 350 350 350 349 347 345 337 331 342 344 343 340 337 336 336 332 332 330 331 331 333 334 333
338 340 341 344 336 338 345 347 349 351 352 355 351 351 351 351 349 349 350 351 349 347 348 348 346 342 342 340 344 341 340 339 335 337 331 333 332 329 331 332 334 333 331
336 337 338 339 335 340 338 342 347 350 352 350 352 353 353 352 353 350 350 349 349 347 347 347 344 344 346 345 339 336 331 331 331 331 332 330 329 331 325 326 326 327 329
336 334 335 336 336 333 334 341 336 346 352 350 350 352 354 353 353 353 352 350 348 347 346 345 345 346 344 341 339 334 327 328 327 332 330 328 329 325 327 327 327 326 329
334 335 335 336 336 336 334 343 347 353 354 355 355 354 356 353 353 353 353 350 348 348 347 344 345 346 345 337 336 334 333 330 331 326 327 327 328 324 323 324 321 327 326
329 335 335 335 335 336 335 344 350 355 353 352 355 354 355 354 352 352 352 351 348 347 346 343 340 341 339 336 335 331 332 332 330 323 322 323 323 321 323 320 320 320 324
330 331 334 334 337 345 350 346 354 352 349 347 349 348 349 351 351 349 349 350 346 348 346 342 340 340 338 336 333 332 331 327 321 324 319 319 320 320 320 318 318 316 318

GFSSE_925_thetae_138.txt.gz
Theta_e
347 344 337 332 332 331 330 334 342 346 346 346 346 344 334 324 328 334 338 340 340 340 336 327 327 326 326 326 327 328 328 330 336 341 341 342 343 341 339 338 335 335 336
346 342 337 333 332 331 329 330 332 342 346 346 345 342 327 326 334 336 336 334 332 331 333 327 330 330 330 332 331 335 339 337 333 335 337 344 338 336 337 333 331 332 339
345 341 337 333 333 331 330 329 328 330 335 341 340 332 325 333 336 334 334 335 331 328 329 328 333 334 335 338 343 345 344 345 346 342 334 331 334 334 333 331 329 329 332
344 342 337 333 333 332 332 330 327 328 331 331 330 327 331 336 337 336 336 336 332 325 325 328 334 335 335 338 338 340 342 341 342 344 345 336 337 336 335 334 329 327 328
344 342 338 333 334 333 332 332 328 328 331 330 329 330 334 336 336 335 336 337 330 325 325 326 332 332 333 336 339 340 339 338 339 340 341 342 334 337 337 333 330 327 327
345 343 339 334 334 334 333 333 331 328 330 327 327 330 333 334 335 334 337 336 331 326 326 326 327 331 334 338 338 338 337 337 337 340 341 343 338 335 336 334 331 329 328
346 344 340 335 334 335 333 333 333 329 329 328 326 327 330 332 335 338 337 329 327 327 328 327 328 330 332 337 337 337 336 335 334 337 341 342 341 337 335 334 333 330 330
346 344 341 337 334 335 335 333 333 333 330 330 330 332 333 333 338 338 331 326 323 326 329 328 328 331 334 336 336 335 335 332 331 331 335 342 343 342 337 335 335 332 331
349 347 344 343 338 336 336 336 333 333 333 331 331 332 336 338 340 337 330 328 324 324 328 329 328 328 329 331 332 330 328 327 327 327 326 329 341 342 342 337 335 334 334
349 349 348 348 345 340 337 337 335 333 334 334 333 333 334 336 337 336 332 330 327 324 325 326 328 328 327 327 326 326 326 326 325 324 325 323 328 332 335 339 337 335 334
351 352 352 354 355 347 343 339 338 335 334 335 335 334 333 333 333 334 332 330 330 327 324 323 323 324 325 325 325 324 323 322 324 329 329 326 326 327 329 330 335 335 331
350 351 351 352 351 350 346 344 341 340 335 334 336 336 335 335 333 333 332 330 330 330 327 324 322 322 322 321 320 320 319 319 330 332 332 332 332 332 331 329 329 335 331
350 349 351 348 348 346 344 344 342 343 339 335 336 337 338 336 335 334 333 331 329 330 329 329 328 325 324 323 323 324 325 326 332 334 334 334 334 335 332 330 332 331 330
349 350 349 348 348 348 346 344 343 343 343 340 337 337 338 338 336 334 332 331 330 328 329 333 335 335 330 325 328 334 333 333 335 337 341 344 344 343 342 336 337 336 332
347 348 350 347 348 352 348 345 343 343 344 343 341 339 339 339 336 333 331 330 330 329 333 338 340 340 337 333 332 336 338 338 339 342 343 344 340 340 344 344 342 335 333
345 346 346 346 345 346 347 344 343 343 342 342 341 339 339 337 336 333 330 328 330 332 338 340 341 341 342 341 338 340 340 340 342 344 344 343 341 341 343 343 343 344 344
345 344 344 342 342 342 341 341 339 339 340 339 338 338 338 337 334 332 329 328 336 340 341 341 341 342 345 343 342 345 345 344 344 345 345 343 338 338 338 338 337 338 340
345 346 346 343 342 340 337 336 337 335 336 335 334 333 332 332 329 327 327 327 331 340 342 343 342 342 346 345 344 344 343 343 345 344 341 338 336 334 331 330 329 329 332
343 344 345 344 342 338 337 335 335 332 335 336 333 331 330 330 329 329 330 328 330 337 340 345 343 344 346 346 345 344 339 343 342 342 341 337 335 333 330 328 330 331 330
340 342 345 344 343 342 342 341 340 336 341 341 339 338 334 334 333 333 334 335 334 333 337 347 347 347 347 344 341 339 337 342 342 340 337 335 333 330 327 324 324 327 327
338 338 343 343 344 343 344 344 344 345 344 343 344 345 343 340 340 341 343 342 342 341 337 347 347 346 344 343 339 337 335 336 339 337 335 333 331 327 325 324 326 325 325
337 337 338 343 341 342 342 344 344 345 348 350 348 348 348 346 345 344 344 345 345 345 343 343 346 345 343 342 339 336 337 333 331 333 332 331 329 324 326 324 325 325 327
339 339 341 339 341 342 343 343 344 347 348 349 349 349 349 351 351 349 348 348 347 346 345 345 345 344 342 342 340 337 334 334 325 332 331 331 327 325 325 323 323 322 323
334 334 340 342 341 340 342 344 344 342 344 346 347 348 348 348 347 349 349 347 345 347 346 345 344 344 343 341 340 340 335 329 330 329 329 329 328 326 323 321 322 321 318
329 329 328 336 339 339 339 339 341 338 341 344 344 344 348 347 349 348 349 347 346 346 345 344 344 342 343 340 340 336 336 333 329 327 331 326 326 325 325 320 321 318 317
327 329 330 336 337 337 336 336 336 336 337 338 343 345 345 345 344 341 344 345 344 345 342 343 343 342 341 340 338 339 335 331 327 326 326 324 323 322 318 317 320 318 317

GFSSE_925_thetae_141.txt.gz
Theta_e
352 353 334 337 339 343 346 347 346 345 340 338 336 331 327 324 332 334 341 345 344 338 327 327 326 324 325 327 328 330 331 333 336 339 341 341 342 340 339 339 339 340 336
353 352 333 335 336 340 344 346 346 345 344 344 339 331 324 328 333 338 340 340 338 334 326 326 325 327 328 333 338 339 336 335 333 332 339 336 332 332 335 333 335 339 335
353 352 338 333 333 334 337 345 346 346 346 346 340 328 324 332 337 337 334 332 332 331 328 333 330 332 337 342 345 345 345 345 345 342 333 339 339 331 336 335 331 332 335
352 350 348 333 331 330 332 337 345 346 346 346 338 325 330 335 337 334 334 331 329 329 330 337 335 334 342 343 341 342 342 341 341 343 346 340 340 332 335 337 334 330 332
351 349 347 332 331 330 329 328 333 342 345 340 329 327 334 336 336 336 335 332 326 326 328 335 335 335 338 338 341 340 338 339 339 340 345 345 341 337 334 334 337 333 330
349 348 335 333 332 332 330 327 328 330 331 330 328 332 336 337 336 335 336 332 325 326 326 331 333 333 336 338 340 339 337 338 337 341 342 346 342 336 334 334 333 332 331
350 349 343 334 332 332 331 329 327 330 330 329 330 333 336 336 335 336 336 334 326 327 326 327 330 333 336 337 338 338 336 335 339 338 344 344 344 338 335 335 334 332 331
350 350 347 335 334 332 332 331 329 329 327 326 329 332 333 333 335 337 332 327 325 327 328 328 330 331 333 337 337 337 336 333 337 335 334 345 343 342 340 336 335 333 332
350 351 349 346 337 333 333 333 332 329 328 326 326 328 331 335 338 336 329 326 324 326 329 329 330 330 334 336 336 335 332 329 337 334 329 332 335 340 341 341 337 334 333
351 350 350 349 346 345 335 333 333 332 331 329 330 332 334 336 339 335 329 328 325 325 327 329 329 328 328 328 328 328 327 327 334 332 332 330 324 329 333 335 338 337 334
352 351 350 350 349 348 347 337 334 334 334 333 331 331 332 344 343 336 334 329 330 326 325 325 326 327 327 327 327 327 326 334 332 333 335 329 326 327 328 329 329 334 337
352 352 351 351 350 349 347 345 342 339 340 340 339 334 342 340 339 337 333 330 330 330 328 325 324 324 325 335 332 324 328 328 327 332 336 332 332 332 333 331 329 329 334
351 351 351 352 351 351 349 347 347 346 343 340 337 336 335 337 334 335 332 332 332 333 339 337 337 335 336 334 332 332 332 331 331 334 335 336 337 338 339 335 332 337 336
350 351 351 351 351 351 350 348 348 347 345 344 344 337 338 336 334 333 334 334 332 338 335 338 339 339 335 332 328 332 336 337 336 337 340 342 344 343 344 344 341 337 335
350 350 350 350 350 351 350 349 349 348 348 346 342 337 337 338 336 333 333 338 336 336 336 338 342 343 342 342 338 335 338 338 339 341 344 344 342 340 341 343 343 343 341
351 350 349 349 349 348 349 349 349 348 348 344 342 340 338 337 336 334 332 332 330 332 336 338 343 343 345 344 343 340 341 344 340 342 345 346 343 339 339 340 341 342 343
350 350 349 349 345 340 341 342 345 347 346 343 341 340 339 337 335 335 335 331 334 332 337 340 341 342 344 346 346 347 347 345 343 343 343 347 345 338 337 335 333 332 334
349 349 349 348 346 340 337 338 339 340 341 341 342 339 337 337 337 335 335 332 330 331 342 344 345 346 345 346 348 346 345 343 343 344 347 347 342 339 334 330 327 328 329
348 348 348 347 347 343 341 340 339 337 339 338 341 342 339 339 338 336 335 331 329 329 334 342 345 346 347 347 348 346 344 345 345 344 343 343 338 335 334 328 325 329 329
346 347 348 347 346 346 344 343 341 341 339 339 339 337 334 337 334 331 329 329 331 333 331 338 341 346 346 346 345 342 343 343 344 345 344 340 337 334 330 325 325 328 326
340 345 347 347 347 345 345 343 344 345 343 341 340 340 340 337 335 336 336 338 338 339 340 340 341 342 345 344 342 344 343 340 340 341 342 339 337 335 329 325 325 325 327
341 341 344 346 347 346 346 345 344 344 344 345 341 343 344 343 342 342 342 343 344 344 344 344 343 342 343 343 342 344 344 341 335 337 338 338 337 334 332 325 324 324 326
341 342 341 342 346 345 345 343 343 344 348 349 351 352 350 349 348 347 347 345 345 345 345 344 338 330 343 344 340 340 342 340 331 330 335 334 334 331 330 323 323 322 323
334 339 342 343 343 343 342 343 344 344 346 350 351 350 351 351 350 349 348 346 347 348 344 342 336 340 343 340 341 339 334 332 336 337 333 334 333 330 326 324 320 322 321
332 336 339 341 343 344 342 342 344 344 346 345 342 342 346 344 345 350 350 349 348 347 346 345 345 344 343 341 339 336 335 333 333 331 334 333 331 331 330 325 323 322 321
327 332 337 338 339 341 340 341 341 342 343 343 345 346 344 342 342 340 340 343 347 347 345 342 341 338 343 341 338 339 337 335 332 332 333 336 335 330 327 326 323 319 319

GFSSE_925_thetae_144.txt.gz
Theta_e
351 350 339 342 344 350 352 347 345 341 333 333 334 336 328 332 341 345 345 343 339 330 332 331 325 326 328 330 332 334 335 333 333 335 335 334 332 335 337 335 341 339 334
350 348 338 341 345 348 351 347 346 336 334 333 335 332 328 334 339 344 345 343 337 326 327 325 326 328 331 333 334 335 336 334 331 333 335 333 329 333 335 332 340 337 332
350 345 343 340 344 348 350 347 345 337 337 335 333 328 329 332 335 341 340 337 333 326 326 327 329 331 336 343 345 345 345 344 343 335 340 341 338 329 332 333 331 333 334
349 344 344 339 342 347 348 347 345 342 343 339 332 327 332 335 337 334 331 331 332 327 330 330 333 338 344 344 343 343 342 341 342 345 344 341 339 331 332 334 331 331 333
348 345 345 334 339 345 346 346 346 345 346 341 329 328 334 336 333 333 331 327 329 328 332 333 334 341 342 340 342 340 339 339 339 344 345 342 341 336 332 333 340 337 332
347 347 338 331 333 337 342 345 346 346 346 341 327 333 335 334 334 335 334 327 328 327 333 334 335 339 338 340 341 339 337 338 341 343 344 344 343 336 333 333 332 332 330
347 348 343 331 331 330 330 335 339 343 342 333 327 334 336 335 335 336 335 329 328 326 328 333 334 334 337 339 340 339 337 336 343 340 345 346 345 338 335 334 333 333 332
347 348 348 332 331 330 328 327 328 330 330 328 330 334 336 335 333 337 337 334 330 328 329 329 330 333 335 337 338 338 337 335 339 340 338 344 347 341 339 337 335 334 333
348 348 347 344 338 331 330 329 329 328 327 327 328 331 333 332 334 337 330 327 327 329 329 329 330 332 333 336 338 337 335 333 334 337 337 334 339 338 340 340 339 336 334
349 349 347 346 343 343 341 330 329 328 326 324 325 328 330 334 337 335 329 327 325 326 330 329 330 330 331 332 332 331 329 327 333 334 332 332 330 325 332 332 334 338 338
349 348 347 346 345 344 343 340 332 330 328 327 330 331 332 341 343 342 338 336 327 325 326 329 331 331 331 329 328 327 326 331 333 332 334 335 327 327 328 330 330 330 334
350 349 348 347 347 346 345 344 343 343 341 341 341 343 341 342 345 343 341 331 330 329 326 325 326 326 324 332 336 332 329 329 328 331 334 335 332 332 332 334 332 330 330
351 349 349 350 349 348 346 346 345 345 345 345 345 345 341 342 343 340 339 338 338 337 338 337 338 335 334 334 332 331 331 332 329 332 335 335 335 337 339 340 334 336 335
351 350 351 352 352 350 348 348 347 347 347 347 347 348 346 344 342 340 339 338 341 338 338 341 338 339 341 340 337 335 337 339 334 335 337 339 342 343 343 343 343 338 339
352 352 352 353 353 353 352 350 348 348 348 347 348 348 346 344 343 341 341 339 337 336 337 336 338 344 345 344 344 340 339 341 344 344 343 345 344 342 340 341 342 343 343
353 353 352 353 354 354 354 351 350 350 349 349 348 348 348 346 346 342 341 339 338 337 336 336 339 347 347 347 349 348 347 347 347 346 345 345 346 343 339 339 339 341 342
353 352 352 353 353 353 353 353 352 350 349 350 349 349 349 348 347 345 340 339 337 336 339 339 344 345 347 348 350 351 351 350 350 349 349 346 346 346 339 336 334 332 331
355 354 353 351 352 353 352 352 350 349 349 349 350 347 349 349 348 347 342 339 337 338 338 343 345 346 346 346 347 348 349 349 348 348 347 346 345 345 340 335 330 326 327
355 355 354 353 351 351 351 351 351 350 351 350 349 349 349 348 347 346 341 339 341 337 336 339 345 348 349 350 347 347 348 349 348 345 346 346 346 344 341 339 329 325 327
350 354 354 354 353 352 351 351 349 347 346 345 346 346 346 345 346 343 340 340 341 337 336 337 342 345 349 350 349 347 346 344 345 344 344 346 345 344 341 339 335 332 327
342 350 353 354 353 351 350 348 347 345 345 340 340 344 344 342 344 342 340 340 342 341 342 343 343 346 348 350 346 344 341 342 341 343 343 345 345 343 341 339 335 330 330
339 341 346 351 352 352 350 349 347 346 346 345 345 345 346 346 346 345 345 347 348 349 350 350 351 348 346 347 343 341 343 339 333 338 341 341 343 342 340 338 332 332 331
340 342 344 348 349 351 350 350 350 349 349 351 350 349 351 351 350 349 349 350 349 351 349 350 350 350 341 343 345 342 341 342 334 334 335 339 338 339 339 334 333 331 332
336 341 343 345 347 350 351 350 350 348 348 348 350 353 354 355 353 354 353 353 353 353 351 345 343 346 345 345 346 344 336 334 338 337 334 334 333 335 338 334 331 330 329
330 333 340 344 347 348 349 350 349 349 347 350 351 350 350 351 352 350 352 353 352 351 350 352 350 350 345 348 343 343 338 334 334 334 335 333 331 329 332 334 333 328 328
325 328 336 344 345 347 347 349 349 349 349 349 348 348 347 348 347 346 346 349 351 351 352 351 352 349 349 346 346 344 337 338 336 336 337 333 333 332 334 334 332 330 326

GFSSE_925_thetae_147.txt.gz
Theta_e
352 351 341 342 345 355 352 344 338 337 332 333 336 332 333 337 338 340 338 337 337 340 339 327 325 327 331 333 334 333 333 333 334 332 328 327 328 330 332 340 344 339 329
352 349 340 342 348 354 351 343 342 335 332 333 336 331 336 341 345 344 341 339 329 329 328 325 326 330 333 335 337 337 335 333 332 334 339 329 327 329 330 340 341 332 330
350 349 345 342 351 353 350 345 344 333 333 333 333 329 337 344 345 344 343 337 327 325 325 328 330 336 340 342 343 343 344 343 337 340 343 347 339 329 329 329 329 331 331
348 347 350 343 351 355 349 346 341 334 334 333 331 329 336 338 341 342 339 334 326 326 327 330 334 337 345 345 344 343 342 341 340 346 348 342 339 330 331 330 329 329 333
346 345 351 341 346 351 349 347 339 337 337 333 328 328 335 338 339 333 330 330 326 328 331 332 338 344 344 342 342 340 339 339 341 345 348 343 343 335 331 333 344 341 338
344 346 345 339 344 348 348 346 343 341 342 335 327 329 336 337 333 332 328 327 327 330 335 334 337 343 340 342 342 339 338 338 341 347 343 342 345 335 332 332 336 334 331
344 347 346 336 339 346 347 347 346 345 345 337 326 332 337 335 335 335 331 327 328 327 333 335 335 339 338 340 341 339 338 337 341 341 343 345 347 339 335 334 334 334 333
346 345 346 335 336 343 346 346 346 346 345 336 327 333 336 335 334 336 334 329 329 329 329 333 334 334 336 338 338 339 338 337 339 342 339 340 347 343 339 338 337 336 335
348 345 343 342 338 335 339 342 344 344 340 331 328 333 335 335 334 337 336 332 330 330 330 330 330 332 333 334 337 337 336 336 336 337 338 336 340 338 336 338 339 340 338
348 348 344 342 340 340 339 330 331 331 330 329 330 333 334 333 334 336 330 327 327 329 329 330 330 331 331 333 334 334 332 330 332 334 334 334 332 330 325 332 332 332 338
347 348 346 344 343 342 340 338 331 330 328 328 330 332 332 340 342 342 335 338 325 325 327 329 330 330 329 328 327 326 325 332 332 334 333 336 335 328 328 329 331 331 330
348 347 346 345 345 345 344 343 341 339 338 337 338 339 339 340 344 344 342 336 329 326 324 324 325 325 325 332 335 336 335 330 330 329 330 336 335 329 331 332 335 333 331
349 347 347 347 346 346 345 345 344 343 342 341 341 345 341 341 345 343 344 342 337 332 337 334 336 332 333 334 335 334 332 332 332 331 332 335 335 333 335 338 341 336 336
350 348 348 348 348 347 346 347 346 346 346 346 346 347 342 342 342 341 338 339 339 340 339 340 340 340 339 340 339 337 334 336 336 336 336 336 338 339 343 343 342 343 340
351 350 349 350 352 351 349 348 346 347 347 347 348 350 346 345 341 342 339 339 339 337 337 338 337 339 342 345 343 342 341 340 341 342 342 343 344 344 342 340 340 341 343
353 351 351 352 354 354 352 350 349 349 348 349 348 349 350 347 345 342 341 341 338 337 337 336 336 338 346 346 345 345 346 347 347 348 346 346 346 346 344 339 339 339 339
356 354 353 354 355 356 356 355 353 350 350 349 348 349 351 350 349 347 342 340 338 337 337 337 338 339 344 345 345 346 347 347 346 349 349 348 347 346 346 341 337 335 333
357 356 355 354 354 356 356 356 354 351 350 349 349 349 351 351 350 349 344 341 339 337 337 338 339 343 344 344 345 346 346 346 348 348 349 348 346 347 345 341 336 334 329
357 357 355 355 353 355 356 355 354 351 351 349 353 353 351 351 349 347 345 341 340 339 337 337 340 343 346 348 348 346 347 348 348 347 347 347 345 346 346 341 339 339 328
357 357 356 355 354 354 354 354 352 351 351 350 349 349 349 350 350 349 347 343 341 340 338 337 338 342 347 349 350 347 348 347 345 343 344 343 344 344 343 345 342 338 333
351 356 357 356 356 355 353 351 350 349 348 348 347 346 347 348 347 347 346 344 342 341 340 340 340 343 345 348 350 348 344 345 343 342 344 344 345 346 346 345 342 340 334
341 348 355 357 357 354 354 352 351 348 347 347 345 343 345 346 347 346 346 345 343 345 346 349 350 350 349 347 347 345 341 339 341 337 337 334 335 341 344 344 342 339 334
339 341 345 350 354 356 354 353 353 352 351 350 349 348 349 348 348 350 349 349 350 351 352 351 353 352 351 345 346 345 339 339 339 337 335 333 337 337 339 340 341 338 333
340 341 343 347 351 353 354 352 351 352 351 350 351 351 351 351 352 353 353 353 351 351 351 353 353 350 349 346 340 345 345 342 342 337 337 331 330 329 331 333 335 336 334
335 337 342 345 348 349 351 353 351 351 351 349 350 352 354 353 352 351 350 351 351 353 350 350 351 349 348 345 344 343 344 343 340 340 339 335 333 331 329 332 334 332 334
329 331 336 345 347 348 350 351 352 353 351 349 350 350 347 345 347 346 348 347 349 350 350 351 350 350 350 349 347 346 346 343 341 340 341 338 336 335 334 334 334 333 333